Location: Dumpton Point
(51.3500°N, 1.4433°E)
Time: 03:30:39
(UTC+00:00)

Cosmos 1680 Rocket - Pass Details

Date: 09 April 2020
Orbit: 759 x 782 km, 74.1° (Epoch: 06 June)

Event Time Altitude Azimuth Distance (km) Brightness Sun altitude
Rises 23:41:57 0° 338° (NNW) 3,238 7.8 -30.5°
Reaches altitude 10° 23:44:26 10° 345° (NNW) 2,311 6.8 -30.6°
Enters shadow 23:49:12 43° 49° (NE) 1,071 4.4 -30.6°
